Find Gao Fen 14-02

NORAD ID: 66175 Int'l Des: 2025-242 Owner: YWZB Country: CN operational
LEOCIRCULARRETROGRADESSO

現在のビュー

3D地球を読み込み中...

About Gao Fen 14-02

Gao Fen 14-02 (NORAD 66175) is a satellite launched Oct 26, 2025 by YWZB of CN. It operates in LEO, CIRCULAR, RETROGRADE, SSO orbit with a mass of 6500.00 kg.

次回通過

Passes for default location (London). Set your location on the main map for personalized predictions.

高度履歴

Loading altitude history...

軌道要素

1 66175U 25242A 26193.76285553 .00003585 00000-0 14266-3 0 9995
2 66175 97.4125 269.1005 0001021 94.4183 265.7172 15.25912539 39599
Epoch: Jul 12, 2026 • Age: 32 hours

現在のステータス

高度 491.8 km
遠地点 / 近地点 N/A
速度 7.62 km/s
衛星直下点 31.45°N, 126.49°E
打ち上げ日 Oct 26, 2025
運用期間 0.7 years
タイプ other

技術仕様

分類 Payload
質量 6500.00 kg
乾燥質量 5500.00 kg
総質量 6500.00 kg
長さ 6.00 m
直径 2.50 m
スパン 15.00 m
形状 Box + 2 Pan
製造者 CAST
バスタイプ GF-14
フェーズステータス In Orbit
所有者/国 YWZB/CN

Most Searched